Retour au catalogue

NOAA 17 DEB

ActifPO
NORAD 48744·DEBRIS·🇺🇸 United States

Lancé Jun 24, 2002 depuis Vandenberg Space Force Base

Loading…

Prochains Passages (prochaines 24 heures)

TLE

FraisSource: Space-Track

Époque: Sep 14, 2026, 07:17 UTC

1 48744U 02032CD  26257.30356049  .00003038  00000-0  80098-3 0  9998
2 48744  98.8955 282.6247 0011751 335.2648  24.7980 14.49721498286544

Suivez NOAA 17 DEB en temps réel avec AllMySat

Download on the App Store